Go to the U of M home page
School of Physics & Astronomy
Physics & Astronomy Wiki

physlab:labdoc1101:home

1101 docs

1101_introduction.docx30.0 KiB2013/09/24 12:56
1101_toc.docx21.3 KiB2013/09/24 12:56
1101lab1_check_understanding.docx39.9 KiB2013/09/24 12:56
1101lab1_intro.docx20.1 KiB2013/09/24 12:56
1101lab1_p1_measurement_uncertainty.docx219.8 KiB2013/09/24 12:56
1101lab1_p2_down_incline.docx32.1 KiB2013/09/24 12:56
1101lab1_p3_extension_down_incline.docx22.5 KiB2013/09/24 12:56
1101lab1_p4_mass_acceleration_ball.docx25.8 KiB2013/09/24 12:56
1101lab1_p5_extension_mass_acceleration.docx23.3 KiB2013/09/24 12:56
1101lab1_report.docx18.6 KiB2013/09/24 12:56
1101lab2_check_understanding.docx49.2 KiB2013/09/24 12:56
1101lab2_intro.docx16.6 KiB2013/09/24 12:56
1101lab2_p1_up_down_incline.docx26.3 KiB2013/09/24 12:56
1101lab2_p2_mass_down_incline.docx32.5 KiB2013/09/24 12:56
1101lab2_p3_projectile.docx26.2 KiB2013/09/24 12:56
1101lab2_p4_projectile_mass.docx25.1 KiB2013/09/24 12:56
1101lab3_check_understanding.docx56.7 KiB2013/09/24 12:56
1101lab3_intro.docx16.7 KiB2013/09/24 12:56
1101lab3_p1_surface_effects_kinetic_friction.docx32.0 KiB2013/09/24 12:56
1101lab3_p2_forces_equilibrium.docx37.7 KiB2013/09/24 12:56
1101lab3_p3_normal_kinetic_friction_a.docx40.2 KiB2013/09/24 12:56
1101lab3_p4_normal_kinetic_friction_b.docx40.2 KiB2013/09/24 12:56
1101lab3_table_coefficients_friction.docx20.5 KiB2013/09/24 12:56
1101lab4_check_understanding.docx27.4 KiB2013/09/24 12:56
1101lab4_intro.docx18.8 KiB2013/09/24 12:56
1101lab4_p1_circular_motion_acceleration_a.docx35.7 KiB2013/09/24 12:56
1101lab4_p2_circular_motion_acceleration_b.docx34.6 KiB2013/09/24 12:56
1101lab4_p3_rotation_period_force_a.docx26.9 KiB2013/09/24 12:56
1101lab4_p4_rotation_period_force_b.docx28.2 KiB2013/09/24 12:56
1101lab4_p5_torque_equilibrium.docx25.6 KiB2013/09/24 12:56
1101lab5_check_understanding.docx58.5 KiB2013/09/24 12:56
1101lab5_intro.docx19.5 KiB2013/09/24 12:56
1101lab5_p1_spring_constants.docx34.1 KiB2013/09/24 12:56
1101lab5_p2_effective_spring_constants.docx27.0 KiB2013/09/24 12:56
1101lab6_check_understanding.docx32.9 KiB2013/09/24 12:56
1101lab6_intro.docx17.9 KiB2013/09/24 12:56
1101lab6_p1_impulse.docx23.3 KiB2013/09/24 12:56
1101lab6_p2_perfectly_inelastic.docx28.6 KiB2013/09/24 12:56
1101lab6_p3_explosions.docx36.9 KiB2013/09/24 12:56
1101lab6_p4_bounce_apart_removed2012duetoenergy.docx28.0 KiB2013/09/24 12:56
1101lab7_check_understanding.docx22.2 KiB2013/09/24 12:56
1101lab7_intro.docx16.7 KiB2013/09/24 12:56
1101lab7_p1_kinetic_energy_work.docx36.8 KiB2013/09/24 12:56
1101lab7_p2_mgh_elastic_potential.docx25.9 KiB2013/09/24 12:56
1101lab7_p3_bounce_apart.docx30.9 KiB2013/09/24 12:56
physlab/labdoc1101/home.txt · Last modified: 2013/09/24 13:39 by sean